| time (UTC) | temp C | wind direction | speed KPH | gust KPH | rain 1hr cm | rain 24hr cm | rain mn cm | humidity % | barometer mb |
| 20260504214544 | 23 | 243 | 8.0 | 17.7 | 0.00 | 0.00 | 0.00 | 36 | 1013.1 |
| 20260504213045 | 24 | 262 | 4.8 | 14.5 | 0.00 | 0.00 | 0.00 | 35 | 1013.0 |
| 20260504211541 | 25 | 285 | 4.8 | 14.5 | 0.00 | 0.00 | 0.00 | 35 | 1013.0 |
| 20260504210048 | 25 | 256 | 6.4 | 16.1 | 0.00 | 0.00 | 0.00 | 35 | 1013.1 |
| 20260504204559 | 25 | 182 | 6.4 | 12.9 | 0.00 | 0.00 | 0.00 | 34 | 1013.1 |
| 20260504203045 | 25 | 100 | 3.2 | 12.9 | 0.00 | 0.00 | 0.00 | 37 | 1013.2 |
| 20260504201553 | 25 | 300 | 6.4 | 14.5 | 0.00 | 0.00 | 0.00 | 36 | 1013.3 |
| 20260504200045 | 25 | 270 | 6.4 | 17.7 | 0.00 | 0.00 | 0.00 | 36 | 1013.5 |
| 20260504194548 | 25 | 0 | 1.6 | 16.1 | 0.00 | 0.00 | 0.00 | 35 | 1013.6 |
| 20260504193045 | 25 | 219 | 4.8 | 9.7 | 0.00 | 0.00 | 0.00 | 34 | 1013.9 |
| 20260504191543 | 25 | 181 | 4.8 | 16.1 | 0.00 | 0.00 | 0.00 | 34 | 1014.1 |
| 20260504190042 | 24 | 300 | 8.0 | 16.1 | 0.00 | 0.00 | 0.00 | 36 | 1014.4 |
| 20260504184543 | 24 | 286 | 3.2 | 20.9 | 0.00 | 0.00 | 0.00 | 38 | 1014.6 |
| 20260504183045 | 25 | 336 | 3.2 | 16.1 | 0.00 | 0.00 | 0.00 | 36 | 1014.6 |
| 20260504181549 | 24 | 37 | 3.2 | 12.9 | 0.00 | 0.00 | 0.00 | 39 | 1014.8 |
| 20260504180045 | 24 | 179 | 6.4 | 16.1 | 0.00 | 0.00 | 0.00 | 36 | 1015.0 |
| 20260504174546 | 24 | 262 | 3.2 | 11.3 | 0.00 | 0.00 | 0.00 | 37 | 1015.0 |
| 20260504173042 | 23 | 237 | 4.8 | 11.3 | 0.00 | 0.00 | 0.00 | 36 | 1015.1 |
| 20260504171551 | 24 | 266 | 1.6 | 8.0 | 0.00 | 0.00 | 0.00 | 40 | 1015.1 |
| 20260504081551 | 2 | 0 | 0.0 | 1.6 | 0.00 | 0.00 | 0.00 | 95 | 1016.2 |
| 20260504044542 | 5 | 0 | 0.0 | 0.0 | 0.00 | 0.00 | 0.00 | 90 | 1016.5 |
| 20260504043044 | 5 | 330 | 0.0 | 1.6 | 0.00 | 0.00 | 0.00 | 90 | 1016.5 |
| 20260504041541 | 5 | 0 | 0.0 | 1.6 | 0.00 | 0.00 | 0.00 | 89 | 1016.3 |
| 20260504040048 | 5 | 0 | 0.0 | 1.6 | 0.00 | 0.00 | 0.00 | 89 | 1016.2 |
| 20260504034545 | 5 | 0 | 0.0 | 1.6 | 0.00 | 0.00 | 0.00 | 88 | 1016.3 |
| 20260504033043 | 5 | 0 | 0.0 | 0.0 | 0.00 | 0.00 | 0.00 | 89 | 1016.3 |
| 20260504031543 | 5 | 0 | 0.0 | 0.0 | 0.00 | 0.00 | 0.00 | 89 | 1016.5 |
| 20260504030042 | 6 | 0 | 0.0 | 0.0 | 0.00 | 0.00 | 0.00 | 88 | 1016.6 |
| 20260504024549 | 6 | 0 | 0.0 | 0.0 | 0.00 | 0.00 | 0.00 | 87 | 1016.5 |
| 20260504023045 | 6 | 0 | 0.0 | 0.0 | 0.00 | 0.00 | 0.00 | 85 | 1016.6 |
| 20260504021544 | 6 | 0 | 0.0 | 0.0 | 0.00 | 0.00 | 0.00 | 84 | 1016.3 |
| 20260504020121 | 7 | 0 | 0.0 | 0.0 | 0.00 | 0.00 | 0.00 | 82 | 1016.3 |
| 20260504014558 | 7 | 0 | 0.0 | 0.0 | 0.00 | 0.00 | 0.00 | 80 | 1016.0 |
| 20260504013059 | 7 | 0 | 0.0 | 0.0 | 0.00 | 0.00 | 0.00 | 78 | 1015.5 |
| 20260504011547 | 8 | 0 | 0.0 | 0.0 | 0.00 | 0.00 | 0.00 | 75 | 1015.5 |
| 20260504010046 | 9 | 0 | 0.0 | 0.0 | 0.00 | 0.00 | 0.00 | 74 | 1015.2 |
| 20260504004616 | 10 | 0 | 0.0 | 0.0 | 0.00 | 0.00 | 0.00 | 71 | 1015.3 |
| 20260504003048 | 11 | 0 | 0.0 | 0.0 | 0.00 | 0.00 | 0.00 | 69 | 1015.1 |
| 20260504001612 | 12 | 0 | 0.0 | 0.0 | 0.00 | 0.00 | 0.00 | 64 | 1014.9 |
| 20260504000058 | 13 | 0 | 0.0 | 0.0 | 0.00 | 0.00 | 0.00 | 57 | 1014.7 |
| 20260503234544 | 15 | 0 | 0.0 | 0.0 | 0.00 | 0.00 | 0.00 | 53 | 1014.7 |
| 20260503233044 | 16 | 0 | 0.0 | 4.8 | 0.00 | 0.00 | 0.00 | 42 | 1014.5 |
| 20260503231543 | 17 | 234 | 0.0 | 3.2 | 0.00 | 0.00 | 0.00 | 38 | 1014.5 |
| 20260503230100 | 17 | 0 | 0.0 | 1.6 | 0.00 | 0.00 | 0.00 | 39 | 1014.6 |
| 20260503224548 | 17 | 0 | 0.0 | 4.8 | 0.00 | 0.00 | 0.00 | 36 | 1014.7 |
| 20260503223047 | 17 | 13 | 0.0 | 8.0 | 0.00 | 0.00 | 0.00 | 37 | 1014.7 |
| 20260503221554 | 18 | 0 | 1.6 | 6.4 | 0.00 | 0.00 | 0.00 | 36 | 1014.8 |
| 20260503220049 | 18 | 0 | 1.6 | 9.7 | 0.00 | 0.00 | 0.00 | 34 | 1015.0 |